sat.trackr.live / text

‹ back to catalog

STARLINK-34345

NORAD 64153 · 2025-112H

PAYLOAD ACTIVE UNKNOWN

§ Identity

Operator
Country
US
Launch date
2025-05-27
Launch site
AFWTR
Launch vehicle
Mass (kg)
RCS (m²)

Purposes: comms

External: N2YO · Heavens-Above · Gunter

§ Orbital elements

Epoch: 2026-09-20T20:36:52.411680Z

Period
93.91 min
Inclination
97.2804°
Eccentricity
0.0000591
Mean motion
15.33456821 rev/d
Perigee alt
465.1 km
Apogee alt
465.9 km
Semi-major
6,843.6 km
B*
3.9766e-4
RAAN
310.9250°
Arg perigee
272.9236°
Mean anomaly
87.1939°
Rev number
7,280

§ Raw data

STARLINK-343451 64153U 25112H   26263.85893995  .00012789  00000+0  39766-3 0  99952 64153  97.2804 310.9250 0000591 272.9236  87.1939 15.33456821 72809

JSON: /api/v1/satellites/64153 · /tle

For live sub-satellite position, see the globe view (requires WebGL).

§ Visibility from observer

Set your observer location to see the next 7 days of passes ≥ 10°. The values pass through the URL so the page stays shareable.

No JS? Fill the form by hand. The geolocation button needs JavaScript.